Location: Newark
(18.8198°N, 82.1672°E)
Time: 17:52:04
(UTC+00:00)

OTV 5 (USA 277) - Pass Details

Date: 23 August 2019
Orbit: 310 x 324 km, 54.5° (Epoch: 08 October)

Event Time Altitude Azimuth Distance (km) Brightness Sun altitude
Exits shadow 22:41:03 - 356° (N) 1,584 ? -22.1°
Reaches altitude 10° 22:42:20 10° 13° (NNE) 1,199 ? -21.8°
Maximum altitude 22:43:57 15° 51° (NE) 973 ? -21.4°
Drops below altitude 10° 22:45:35 10° 89° (E) 1,202 ? -21.1°
Sets 22:48:05 0° 115° (ESE) 2,032 ? -20.5°
